Year,Month,Day,Hour,Minute,Value (Times are PST for temperature in C)
2012,07,06,00,00,15.70
2012,07,06,00,01,15.70
2012,07,06,00,02,15.60
2012,07,06,00,03,15.60
2012,07,06,00,04,15.60
2012,07,06,00,05,15.60
2012,07,06,00,06,15.50
2012,07,06,00,07,15.50
2012,07,06,00,08,15.40
2012,07,06,00,09,15.30
2012,07,06,00,10,15.30
2012,07,06,00,11,15.20
2012,07,06,00,12,15.10
2012,07,06,00,13,15.00
2012,07,06,00,14,15.00
2012,07,06,00,15,15.00
2012,07,06,00,16,15.00
2012,07,06,00,17,15.00
2012,07,06,00,18,15.00
2012,07,06,00,19,14.90
2012,07,06,00,20,14.90
2012,07,06,00,21,14.80
2012,07,06,00,22,14.80
2012,07,06,00,23,14.80
2012,07,06,00,24,14.80
2012,07,06,00,25,14.80
2012,07,06,00,26,14.80
2012,07,06,00,27,14.70
2012,07,06,00,28,14.70
2012,07,06,00,29,14.70
2012,07,06,00,30,14.70
2012,07,06,00,31,14.70
2012,07,06,00,32,14.70
2012,07,06,00,33,14.70
2012,07,06,00,34,14.70
2012,07,06,00,35,14.70
2012,07,06,00,36,14.70
2012,07,06,00,37,14.70
2012,07,06,00,38,14.70
2012,07,06,00,39,14.70
2012,07,06,00,40,14.70
2012,07,06,00,41,14.70
2012,07,06,00,42,14.70
2012,07,06,00,43,14.70
2012,07,06,00,44,14.70
2012,07,06,00,45,14.70
2012,07,06,00,46,14.70
2012,07,06,00,47,14.70
2012,07,06,00,48,14.70
2012,07,06,00,49,14.70
2012,07,06,00,50,14.70
2012,07,06,00,51,14.60
2012,07,06,00,52,14.60
2012,07,06,00,53,14.60
2012,07,06,00,54,14.60
2012,07,06,00,55,14.60
2012,07,06,00,56,14.60
2012,07,06,00,57,14.60
2012,07,06,00,58,14.60
2012,07,06,00,59,14.60
2012,07,06,01,00,14.60
2012,07,06,01,01,14.60
2012,07,06,01,02,14.60
2012,07,06,01,03,14.60
2012,07,06,01,04,14.60
2012,07,06,01,05,14.60
2012,07,06,01,06,14.60
2012,07,06,01,07,14.60
2012,07,06,01,08,14.60
2012,07,06,01,09,14.50
2012,07,06,01,10,14.50
2012,07,06,01,11,14.50
2012,07,06,01,12,14.50
2012,07,06,01,13,14.50
2012,07,06,01,14,14.50
2012,07,06,01,15,14.50
2012,07,06,01,16,14.50
2012,07,06,01,17,14.50
2012,07,06,01,18,14.50
2012,07,06,01,19,14.50
2012,07,06,01,20,14.50
2012,07,06,01,21,14.50
2012,07,06,01,22,14.50
2012,07,06,01,23,14.50
2012,07,06,01,24,14.40
2012,07,06,01,25,14.40
2012,07,06,01,26,14.40
2012,07,06,01,27,14.40
2012,07,06,01,28,14.30
2012,07,06,01,29,14.30
2012,07,06,01,30,14.30
2012,07,06,01,31,14.30
2012,07,06,01,32,14.30
2012,07,06,01,33,14.30
2012,07,06,01,34,14.30
2012,07,06,01,35,14.30
2012,07,06,01,36,14.30
2012,07,06,01,37,14.30
2012,07,06,01,38,14.30
2012,07,06,01,39,14.30
2012,07,06,01,40,14.30
2012,07,06,01,41,14.30
2012,07,06,01,42,14.30
2012,07,06,01,43,14.30
2012,07,06,01,44,14.40
2012,07,06,01,45,14.40
2012,07,06,01,46,14.40
2012,07,06,01,47,14.40
2012,07,06,01,48,14.40
2012,07,06,01,49,14.40
2012,07,06,01,50,14.30
2012,07,06,01,51,14.30
2012,07,06,01,52,14.30
2012,07,06,01,53,14.30
2012,07,06,01,54,14.30
2012,07,06,01,55,14.30
2012,07,06,01,56,14.30
2012,07,06,01,57,14.40
2012,07,06,01,58,14.40
2012,07,06,01,59,14.40
2012,07,06,02,00,14.30
2012,07,06,02,01,14.30
2012,07,06,02,02,14.30
2012,07,06,02,03,14.30
2012,07,06,02,04,14.30
2012,07,06,02,05,14.30
2012,07,06,02,06,14.30
2012,07,06,02,07,14.20
2012,07,06,02,08,14.20
2012,07,06,02,09,14.20
2012,07,06,02,10,14.20
2012,07,06,02,11,14.20
2012,07,06,02,12,14.10
2012,07,06,02,13,14.10
2012,07,06,02,14,14.00
2012,07,06,02,15,14.00
2012,07,06,02,16,13.90
2012,07,06,02,17,13.90
2012,07,06,02,18,13.80
2012,07,06,02,19,13.80
2012,07,06,02,20,13.80
2012,07,06,02,21,13.80
2012,07,06,02,22,13.80
2012,07,06,02,23,13.80
2012,07,06,02,24,13.80
2012,07,06,02,25,13.80
2012,07,06,02,26,13.80
2012,07,06,02,27,13.80
2012,07,06,02,28,13.80
2012,07,06,02,29,13.80
2012,07,06,02,30,13.80
2012,07,06,02,31,13.80
2012,07,06,02,32,13.80
2012,07,06,02,33,13.80
2012,07,06,02,34,13.90
2012,07,06,02,35,13.90
2012,07,06,02,36,13.90
2012,07,06,02,37,13.80
2012,07,06,02,38,13.80
2012,07,06,02,39,13.80
2012,07,06,02,40,13.80
2012,07,06,02,41,13.80
2012,07,06,02,42,13.80
2012,07,06,02,43,13.80
2012,07,06,02,44,13.80
2012,07,06,02,45,13.80
2012,07,06,02,46,13.80
2012,07,06,02,47,13.80
2012,07,06,02,48,13.80
2012,07,06,02,49,13.70
2012,07,06,02,50,13.70
2012,07,06,02,51,13.70
2012,07,06,02,52,13.70
2012,07,06,02,53,13.70
2012,07,06,02,54,13.70
2012,07,06,02,55,13.70
2012,07,06,02,56,13.80
2012,07,06,02,57,13.80
2012,07,06,02,58,13.70
2012,07,06,02,59,13.70
2012,07,06,03,00,13.70
2012,07,06,03,01,13.70
2012,07,06,03,02,13.70
2012,07,06,03,03,13.60
2012,07,06,03,04,13.60
2012,07,06,03,05,13.60
2012,07,06,03,06,13.60
2012,07,06,03,07,13.60
2012,07,06,03,08,13.60
2012,07,06,03,09,13.60
2012,07,06,03,10,13.50
2012,07,06,03,11,13.50
2012,07,06,03,12,13.50
2012,07,06,03,13,13.50
2012,07,06,03,14,13.40
2012,07,06,03,15,13.40
2012,07,06,03,16,13.40
2012,07,06,03,17,13.30
2012,07,06,03,18,13.30
2012,07,06,03,19,13.30
2012,07,06,03,20,13.30
2012,07,06,03,21,13.30
2012,07,06,03,22,13.30
2012,07,06,03,23,13.20
2012,07,06,03,24,13.20
2012,07,06,03,25,13.20
2012,07,06,03,26,13.20
2012,07,06,03,27,13.20
2012,07,06,03,28,13.10
2012,07,06,03,29,13.10
2012,07,06,03,30,13.10
2012,07,06,03,31,13.10
2012,07,06,03,32,13.10
2012,07,06,03,33,13.00
2012,07,06,03,34,13.00
2012,07,06,03,35,12.90
2012,07,06,03,36,12.90
2012,07,06,03,37,12.90
2012,07,06,03,38,12.90
2012,07,06,03,39,12.90
2012,07,06,03,40,12.90
2012,07,06,03,41,12.90
2012,07,06,03,42,12.90
2012,07,06,03,43,12.80
2012,07,06,03,44,12.80
2012,07,06,03,45,12.80
2012,07,06,03,46,12.80
2012,07,06,03,47,12.80
2012,07,06,03,48,12.80
2012,07,06,03,49,12.80
2012,07,06,03,50,12.80
2012,07,06,03,51,12.80
2012,07,06,03,52,12.80
2012,07,06,03,53,12.80
2012,07,06,03,54,12.90
2012,07,06,03,55,12.90
2012,07,06,03,56,12.90
2012,07,06,03,57,12.90
2012,07,06,03,58,12.90
2012,07,06,03,59,12.90
2012,07,06,04,00,13.00
2012,07,06,04,01,13.00
2012,07,06,04,02,13.00
2012,07,06,04,03,13.00
2012,07,06,04,04,13.10
2012,07,06,04,05,13.10
2012,07,06,04,06,13.10
2012,07,06,04,07,13.10
2012,07,06,04,08,13.10
2012,07,06,04,09,13.10
2012,07,06,04,10,13.10
2012,07,06,04,11,13.10
2012,07,06,04,12,13.10
2012,07,06,04,13,13.10
2012,07,06,04,14,13.10
2012,07,06,04,15,13.10
2012,07,06,04,16,13.10
2012,07,06,04,17,13.10
2012,07,06,04,18,13.10
2012,07,06,04,19,13.10
2012,07,06,04,20,13.10
2012,07,06,04,21,13.10
2012,07,06,04,22,13.10
2012,07,06,04,23,13.00
2012,07,06,04,24,13.00
2012,07,06,04,25,13.00
2012,07,06,04,26,13.00
2012,07,06,04,27,13.00
2012,07,06,04,28,13.00
2012,07,06,04,29,12.90
2012,07,06,04,30,12.90
2012,07,06,04,31,12.90
2012,07,06,04,32,12.90
2012,07,06,04,33,12.90
2012,07,06,04,34,12.90
2012,07,06,04,35,12.90
2012,07,06,04,36,12.90
2012,07,06,04,37,12.90
2012,07,06,04,38,12.90
2012,07,06,04,39,12.90
2012,07,06,04,40,13.00
2012,07,06,04,41,13.00
2012,07,06,04,42,13.00
2012,07,06,04,43,13.00
2012,07,06,04,44,13.00
2012,07,06,04,45,13.00
2012,07,06,04,46,13.00
2012,07,06,04,47,13.00
2012,07,06,04,48,13.00
2012,07,06,04,49,13.00
2012,07,06,04,50,12.90
2012,07,06,04,51,12.90
2012,07,06,04,52,12.90
2012,07,06,04,53,12.90
2012,07,06,04,54,12.90
2012,07,06,04,55,12.90
2012,07,06,04,56,13.00
2012,07,06,04,57,13.10
2012,07,06,04,58,13.10
2012,07,06,04,59,13.10
2012,07,06,05,00,13.10
2012,07,06,05,01,13.10
2012,07,06,05,02,13.10
2012,07,06,05,03,13.10
2012,07,06,05,04,13.00
2012,07,06,05,05,12.90
2012,07,06,05,06,12.80
2012,07,06,05,07,12.80
2012,07,06,05,08,12.70
2012,07,06,05,09,12.70
2012,07,06,05,10,12.60
2012,07,06,05,11,12.60
2012,07,06,05,12,12.60
2012,07,06,05,13,12.60
2012,07,06,05,14,12.70
2012,07,06,05,15,12.80
2012,07,06,05,16,12.90
2012,07,06,05,17,13.00
2012,07,06,05,18,13.20
2012,07,06,05,19,13.20
2012,07,06,05,20,13.30
2012,07,06,05,21,13.30
2012,07,06,05,22,13.40
2012,07,06,05,23,13.40
2012,07,06,05,24,13.40
2012,07,06,05,25,13.30
2012,07,06,05,26,13.30
2012,07,06,05,27,13.30
2012,07,06,05,28,13.20
2012,07,06,05,29,13.20
2012,07,06,05,30,13.20
2012,07,06,05,31,13.10
2012,07,06,05,32,13.10
2012,07,06,05,33,13.10
2012,07,06,05,34,13.10
2012,07,06,05,35,13.10
2012,07,06,05,36,13.10
2012,07,06,05,37,13.00
2012,07,06,05,38,13.00
2012,07,06,05,39,12.90
2012,07,06,05,40,12.80
2012,07,06,05,41,12.70
2012,07,06,05,42,12.70
2012,07,06,05,43,12.70
2012,07,06,05,44,12.70
2012,07,06,05,45,12.70
2012,07,06,05,46,12.70
2012,07,06,05,47,12.70
2012,07,06,05,48,12.70
2012,07,06,05,49,12.70
2012,07,06,05,50,12.70
2012,07,06,05,51,12.70
2012,07,06,05,52,12.70
2012,07,06,05,53,12.70
2012,07,06,05,54,12.70
2012,07,06,05,55,12.70
2012,07,06,05,56,12.60
2012,07,06,05,57,12.60
2012,07,06,05,58,12.60
2012,07,06,05,59,12.60
2012,07,06,06,00,12.60
2012,07,06,06,01,12.70
2012,07,06,06,02,12.70
2012,07,06,06,03,12.70
2012,07,06,06,04,12.70
2012,07,06,06,05,12.70
2012,07,06,06,06,12.70
2012,07,06,06,07,12.70
2012,07,06,06,08,12.80
2012,07,06,06,09,12.80
2012,07,06,06,10,12.80
2012,07,06,06,11,12.80
2012,07,06,06,12,12.80
2012,07,06,06,13,12.80
2012,07,06,06,14,12.80
2012,07,06,06,15,12.80
2012,07,06,06,16,12.80
2012,07,06,06,17,12.80
2012,07,06,06,18,12.80
2012,07,06,06,19,12.90
2012,07,06,06,20,12.90
2012,07,06,06,21,13.00
2012,07,06,06,22,13.10
2012,07,06,06,23,13.10
2012,07,06,06,24,13.20
2012,07,06,06,25,13.20
2012,07,06,06,26,13.30
2012,07,06,06,27,13.30
2012,07,06,06,28,13.30
2012,07,06,06,29,13.40
2012,07,06,06,30,13.40
2012,07,06,06,31,13.50
2012,07,06,06,32,13.60
2012,07,06,06,33,13.70
2012,07,06,06,34,13.80
2012,07,06,06,35,13.90
2012,07,06,06,36,14.00
2012,07,06,06,37,14.10
2012,07,06,06,38,14.30
2012,07,06,06,39,14.30
2012,07,06,06,40,14.30
2012,07,06,06,41,14.30
2012,07,06,06,42,14.30
2012,07,06,06,43,14.40
2012,07,06,06,44,14.40
2012,07,06,06,45,14.50
2012,07,06,06,46,14.60
2012,07,06,06,47,14.70
2012,07,06,06,48,14.80
2012,07,06,06,49,14.80
2012,07,06,06,50,14.90
2012,07,06,06,51,15.00
2012,07,06,06,52,15.00
2012,07,06,06,53,15.00
2012,07,06,06,54,15.00
2012,07,06,06,55,15.10
2012,07,06,06,56,15.10
2012,07,06,06,57,15.20
2012,07,06,06,58,15.30
2012,07,06,06,59,15.40
2012,07,06,07,00,15.50
2012,07,06,07,01,15.60
2012,07,06,07,02,15.70
2012,07,06,07,03,15.70
2012,07,06,07,04,15.70
2012,07,06,07,05,15.80
2012,07,06,07,06,15.80
2012,07,06,07,07,15.90
2012,07,06,07,08,15.90
2012,07,06,07,09,16.00
2012,07,06,07,10,16.00
2012,07,06,07,11,16.10
2012,07,06,07,12,16.20
2012,07,06,07,13,16.30
2012,07,06,07,14,16.40
2012,07,06,07,15,16.50
2012,07,06,07,16,16.60
2012,07,06,07,17,16.70
2012,07,06,07,18,16.70
2012,07,06,07,19,16.80
2012,07,06,07,20,16.90
2012,07,06,07,21,16.90
2012,07,06,07,22,17.00
2012,07,06,07,23,17.00
2012,07,06,07,24,17.10
2012,07,06,07,25,17.20
2012,07,06,07,26,17.20
2012,07,06,07,27,17.30
2012,07,06,07,28,17.40
2012,07,06,07,29,17.50
2012,07,06,07,30,17.50
2012,07,06,07,31,17.50
2012,07,06,07,32,17.40
2012,07,06,07,33,17.40
2012,07,06,07,34,17.40
2012,07,06,07,35,17.50
2012,07,06,07,36,17.60
2012,07,06,07,37,17.60
2012,07,06,07,38,17.70
2012,07,06,07,39,17.70
2012,07,06,07,40,17.80
2012,07,06,07,41,17.80
2012,07,06,07,42,17.80
2012,07,06,07,43,17.90
2012,07,06,07,44,17.70
2012,07,06,07,45,17.60
2012,07,06,07,46,17.50
2012,07,06,07,47,17.30
2012,07,06,07,48,17.20
2012,07,06,07,49,17.10
2012,07,06,07,50,17.00
2012,07,06,07,51,16.80
2012,07,06,07,52,16.80
2012,07,06,07,53,16.70
2012,07,06,07,54,16.60
2012,07,06,07,55,16.50
2012,07,06,07,56,16.50
2012,07,06,07,57,16.40
2012,07,06,07,58,16.40
2012,07,06,07,59,16.40
2012,07,06,08,00,16.40
2012,07,06,08,01,16.40
2012,07,06,08,02,16.40
2012,07,06,08,03,16.30
2012,07,06,08,04,16.30
2012,07,06,08,05,16.30
2012,07,06,08,06,16.40
2012,07,06,08,07,16.50
2012,07,06,08,08,16.50
2012,07,06,08,09,16.60
2012,07,06,08,10,16.60
2012,07,06,08,11,16.70
2012,07,06,08,12,16.70
2012,07,06,08,13,16.60
2012,07,06,08,14,16.50
2012,07,06,08,15,16.50
2012,07,06,08,16,16.50
2012,07,06,08,17,16.40
2012,07,06,08,18,16.40
2012,07,06,08,19,16.30
2012,07,06,08,20,16.30
2012,07,06,08,21,16.30
2012,07,06,08,22,16.20
2012,07,06,08,23,16.20
2012,07,06,08,24,16.20
2012,07,06,08,25,16.20
2012,07,06,08,26,16.20
2012,07,06,08,27,16.20
2012,07,06,08,28,16.10
2012,07,06,08,29,16.10
2012,07,06,08,30,16.10
2012,07,06,08,31,16.10
2012,07,06,08,32,16.20
2012,07,06,08,33,16.20
2012,07,06,08,34,16.20
2012,07,06,08,35,16.20
2012,07,06,08,36,16.20
2012,07,06,08,37,16.30
2012,07,06,08,38,16.30
2012,07,06,08,39,16.30
2012,07,06,08,40,16.50
2012,07,06,08,41,16.50
2012,07,06,08,42,16.60
2012,07,06,08,43,16.70
2012,07,06,08,44,16.70
2012,07,06,08,45,16.70
2012,07,06,08,46,16.70
2012,07,06,08,47,16.70
2012,07,06,08,48,16.60
2012,07,06,08,49,16.50
2012,07,06,08,50,16.50
2012,07,06,08,51,16.40
2012,07,06,08,52,16.40
2012,07,06,08,53,16.40
2012,07,06,08,54,16.40
2012,07,06,08,55,16.40
2012,07,06,08,56,16.40
2012,07,06,08,57,16.40
2012,07,06,08,58,16.30
2012,07,06,08,59,16.20
2012,07,06,09,00,16.10
2012,07,06,09,01,16.00
2012,07,06,09,02,15.90
2012,07,06,09,03,15.90
2012,07,06,09,04,15.80
2012,07,06,09,05,15.90
2012,07,06,09,06,15.90
2012,07,06,09,07,16.00
2012,07,06,09,08,16.00
2012,07,06,09,09,16.10
2012,07,06,09,10,16.10
2012,07,06,09,11,16.10
2012,07,06,09,12,16.10
2012,07,06,09,13,16.00
2012,07,06,09,14,16.00
2012,07,06,09,15,15.90
2012,07,06,09,16,15.90
2012,07,06,09,17,15.90
2012,07,06,09,18,15.90
2012,07,06,09,19,16.00
2012,07,06,09,20,16.00
2012,07,06,09,21,16.00
2012,07,06,09,22,16.10
2012,07,06,09,23,16.10
2012,07,06,09,24,16.00
2012,07,06,09,25,16.00
2012,07,06,09,26,16.00
2012,07,06,09,27,16.00
2012,07,06,09,28,15.90
2012,07,06,09,29,15.90
2012,07,06,09,30,15.90
2012,07,06,09,31,16.00
2012,07,06,09,32,16.00
2012,07,06,09,33,16.10
2012,07,06,09,34,16.10
2012,07,06,09,35,16.10
2012,07,06,09,36,16.10
2012,07,06,09,37,16.20
2012,07,06,09,38,16.20
2012,07,06,09,39,16.30
2012,07,06,09,40,16.30
2012,07,06,09,41,16.40
2012,07,06,09,42,16.40
2012,07,06,09,43,16.40
2012,07,06,09,44,16.40
2012,07,06,09,45,16.40
2012,07,06,09,46,16.40
2012,07,06,09,47,16.60
2012,07,06,09,48,16.70
2012,07,06,09,49,16.70
2012,07,06,09,50,16.80
2012,07,06,09,51,16.80
2012,07,06,09,52,16.80
2012,07,06,09,53,16.80
2012,07,06,09,54,16.70
2012,07,06,09,55,16.80
2012,07,06,09,56,16.80
2012,07,06,09,57,17.00
2012,07,06,09,58,17.00
2012,07,06,09,59,17.10
2012,07,06,10,00,17.20
2012,07,06,10,01,17.20
2012,07,06,10,02,17.30
2012,07,06,10,03,17.30
2012,07,06,10,04,17.30
2012,07,06,10,05,17.40
2012,07,06,10,06,17.40
2012,07,06,10,07,17.50
2012,07,06,10,08,17.50
2012,07,06,10,09,17.60
2012,07,06,10,10,17.60
2012,07,06,10,11,17.60
2012,07,06,10,12,17.70
2012,07,06,10,13,17.70
2012,07,06,10,14,17.70
2012,07,06,10,15,17.80
2012,07,06,10,16,17.80
2012,07,06,10,17,17.80
2012,07,06,10,18,17.80
2012,07,06,10,19,17.80
2012,07,06,10,20,17.70
2012,07,06,10,21,17.70
2012,07,06,10,22,17.70
2012,07,06,10,23,17.80
2012,07,06,10,24,17.80
2012,07,06,10,25,17.80
2012,07,06,10,26,17.70
2012,07,06,10,27,17.70
2012,07,06,10,28,17.70
2012,07,06,10,29,17.70
2012,07,06,10,30,17.70
2012,07,06,10,31,17.70
2012,07,06,10,32,17.60
2012,07,06,10,33,17.60
2012,07,06,10,34,17.50
2012,07,06,10,35,17.50
2012,07,06,10,36,17.40
2012,07,06,10,37,17.50
2012,07,06,10,38,17.50
2012,07,06,10,39,17.50
2012,07,06,10,40,17.60
2012,07,06,10,41,17.60
2012,07,06,10,42,17.60
2012,07,06,10,43,17.50
2012,07,06,10,44,17.50
2012,07,06,10,45,17.50
2012,07,06,10,46,17.60
2012,07,06,10,47,17.60
2012,07,06,10,48,17.70
2012,07,06,10,49,17.70
2012,07,06,10,50,17.70
2012,07,06,10,51,17.80
2012,07,06,10,52,17.80
2012,07,06,10,53,17.80
2012,07,06,10,54,17.80
2012,07,06,10,55,17.80
2012,07,06,10,56,17.80
2012,07,06,10,57,17.80
2012,07,06,10,58,17.80
2012,07,06,10,59,17.80
2012,07,06,11,00,17.80
2012,07,06,11,01,17.80
2012,07,06,11,02,17.80
2012,07,06,11,03,17.80
2012,07,06,11,04,17.80
2012,07,06,11,05,17.80
2012,07,06,11,06,17.90
2012,07,06,11,07,17.90
2012,07,06,11,08,17.80
2012,07,06,11,09,17.80
2012,07,06,11,10,17.80
2012,07,06,11,11,17.80
2012,07,06,11,12,17.80
2012,07,06,11,13,17.70
2012,07,06,11,14,17.70
2012,07,06,11,15,17.80
2012,07,06,11,16,17.80
2012,07,06,11,17,17.70
2012,07,06,11,18,17.70
2012,07,06,11,19,17.60
2012,07,06,11,20,17.70
2012,07,06,11,21,17.70
2012,07,06,11,22,17.80
2012,07,06,11,23,17.80
2012,07,06,11,24,17.80
2012,07,06,11,25,17.80
2012,07,06,11,26,17.80
2012,07,06,11,27,17.90
2012,07,06,11,28,17.90
2012,07,06,11,29,17.90
2012,07,06,11,30,18.00
2012,07,06,11,31,18.10
2012,07,06,11,32,18.10
2012,07,06,11,33,18.00
2012,07,06,11,34,17.90
2012,07,06,11,35,17.90
2012,07,06,11,36,17.90
2012,07,06,11,37,17.90
2012,07,06,11,38,17.90
2012,07,06,11,39,17.90
2012,07,06,11,40,18.00
2012,07,06,11,41,18.10
2012,07,06,11,42,18.10
2012,07,06,11,43,18.20
2012,07,06,11,44,18.30
2012,07,06,11,45,18.30
2012,07,06,11,46,18.20
2012,07,06,11,47,18.20
2012,07,06,11,48,18.10
2012,07,06,11,49,18.00
2012,07,06,11,50,17.90
2012,07,06,11,51,17.80
2012,07,06,11,52,17.60
2012,07,06,11,53,17.50
2012,07,06,11,54,17.40
2012,07,06,11,55,17.40
2012,07,06,11,56,17.40
2012,07,06,11,57,17.30
2012,07,06,11,58,17.20
2012,07,06,11,59,17.30
2012,07,06,12,00,17.30
2012,07,06,12,01,17.30
2012,07,06,12,02,17.30
2012,07,06,12,03,17.30
2012,07,06,12,04,17.40
2012,07,06,12,05,17.30
2012,07,06,12,06,17.30
2012,07,06,12,07,17.30
2012,07,06,12,08,17.20
2012,07,06,12,09,17.20
2012,07,06,12,10,17.30
2012,07,06,12,11,17.40
2012,07,06,12,12,17.60
2012,07,06,12,13,17.70
2012,07,06,12,14,17.60
2012,07,06,12,15,17.50
2012,07,06,12,16,17.40
2012,07,06,12,17,17.40
2012,07,06,12,18,17.40
2012,07,06,12,19,17.40
2012,07,06,12,20,17.50
2012,07,06,12,21,17.40
2012,07,06,12,22,17.40
2012,07,06,12,23,17.40
2012,07,06,12,24,17.30
2012,07,06,12,25,17.30
2012,07,06,12,26,17.30
2012,07,06,12,27,17.30
2012,07,06,12,28,17.40
2012,07,06,12,29,17.40
2012,07,06,12,30,17.30
2012,07,06,12,31,17.30
2012,07,06,12,32,17.30
2012,07,06,12,33,17.30
2012,07,06,12,34,17.30
2012,07,06,12,35,17.30
2012,07,06,12,36,17.40
2012,07,06,12,37,17.40
2012,07,06,12,38,17.40
2012,07,06,12,39,17.40
2012,07,06,12,40,17.40
2012,07,06,12,41,17.50
2012,07,06,12,42,17.60
2012,07,06,12,43,17.60
2012,07,06,12,44,17.50
2012,07,06,12,45,17.50
2012,07,06,12,46,17.40
2012,07,06,12,47,17.40
2012,07,06,12,48,17.30
2012,07,06,12,49,17.30
2012,07,06,12,50,17.30
2012,07,06,12,51,17.30
2012,07,06,12,52,17.40
2012,07,06,12,53,17.40
2012,07,06,12,54,17.50
2012,07,06,12,55,17.60
2012,07,06,12,56,17.70
2012,07,06,12,57,17.70
2012,07,06,12,58,17.80
2012,07,06,12,59,17.70
2012,07,06,13,00,17.80
2012,07,06,13,01,17.90
2012,07,06,13,02,17.90
2012,07,06,13,03,17.90
2012,07,06,13,04,17.90
2012,07,06,13,05,18.00
2012,07,06,13,06,18.10
2012,07,06,13,07,18.20
2012,07,06,13,08,18.30
2012,07,06,13,09,18.30
2012,07,06,13,10,18.40
2012,07,06,13,11,18.50
2012,07,06,13,12,18.60
2012,07,06,13,13,18.70
2012,07,06,13,14,18.70
2012,07,06,13,15,18.80
2012,07,06,13,16,18.80
2012,07,06,13,17,18.80
2012,07,06,13,18,18.70
2012,07,06,13,19,18.80
2012,07,06,13,20,18.80
2012,07,06,13,21,18.90
2012,07,06,13,22,18.90
2012,07,06,13,23,18.90
2012,07,06,13,24,19.00
2012,07,06,13,25,19.00
2012,07,06,13,26,19.10
2012,07,06,13,27,19.20
2012,07,06,13,28,19.20
2012,07,06,13,29,19.20
2012,07,06,13,30,19.10
2012,07,06,13,31,19.20
2012,07,06,13,32,19.30
2012,07,06,13,33,19.20
2012,07,06,13,34,19.20
2012,07,06,13,35,19.30
2012,07,06,13,36,19.30
2012,07,06,13,37,19.30
2012,07,06,13,38,19.30
2012,07,06,13,39,19.30
2012,07,06,13,40,19.40
2012,07,06,13,41,19.50
2012,07,06,13,42,19.60
2012,07,06,13,43,19.60
2012,07,06,13,44,19.70
2012,07,06,13,45,19.80
2012,07,06,13,46,19.80
2012,07,06,13,47,19.70
2012,07,06,13,48,19.70
2012,07,06,13,49,19.60
2012,07,06,13,50,19.60
2012,07,06,13,51,19.50
2012,07,06,13,52,19.40
2012,07,06,13,53,19.50
2012,07,06,13,54,19.60
2012,07,06,13,55,19.70
2012,07,06,13,56,19.80
2012,07,06,13,57,19.90
2012,07,06,13,58,19.90
2012,07,06,13,59,19.90
2012,07,06,14,00,19.80
2012,07,06,14,01,19.80
2012,07,06,14,02,19.70
2012,07,06,14,03,19.60
2012,07,06,14,04,19.50
2012,07,06,14,05,19.40
2012,07,06,14,06,19.40
2012,07,06,14,07,19.30
2012,07,06,14,08,19.30
2012,07,06,14,09,19.30
2012,07,06,14,10,19.30
2012,07,06,14,11,19.30
2012,07,06,14,12,19.20
2012,07,06,14,13,19.30
2012,07,06,14,14,19.30
2012,07,06,14,15,19.50
2012,07,06,14,16,19.60
2012,07,06,14,17,19.60
2012,07,06,14,18,19.70
2012,07,06,14,19,19.80
2012,07,06,14,20,19.80
2012,07,06,14,21,19.80
2012,07,06,14,22,19.80
2012,07,06,14,23,19.90
2012,07,06,14,24,19.80
2012,07,06,14,25,19.80
2012,07,06,14,26,19.80
2012,07,06,14,27,19.90
2012,07,06,14,28,19.90
2012,07,06,14,29,19.90
2012,07,06,14,30,20.00
2012,07,06,14,31,20.20
2012,07,06,14,32,20.30
2012,07,06,14,33,20.30
2012,07,06,14,34,20.30
2012,07,06,14,35,20.30
2012,07,06,14,36,20.30
2012,07,06,14,37,20.30
2012,07,06,14,38,20.30
2012,07,06,14,39,20.30
2012,07,06,14,40,20.20
2012,07,06,14,41,20.40
2012,07,06,14,42,20.50
2012,07,06,14,43,20.60
2012,07,06,14,44,20.60
2012,07,06,14,45,20.60
2012,07,06,14,46,20.60
2012,07,06,14,47,20.60
2012,07,06,14,48,20.60
2012,07,06,14,49,20.60
2012,07,06,14,50,20.60
2012,07,06,14,51,20.50
2012,07,06,14,52,20.40
2012,07,06,14,53,20.30
2012,07,06,14,54,20.20
2012,07,06,14,55,20.30
2012,07,06,14,56,20.30
2012,07,06,14,57,20.30
2012,07,06,14,58,20.20
2012,07,06,14,59,20.20
2012,07,06,15,00,20.20
2012,07,06,15,01,20.20
2012,07,06,15,02,20.10
2012,07,06,15,03,20.10
2012,07,06,15,04,20.10
2012,07,06,15,05,20.00
2012,07,06,15,06,20.00
2012,07,06,15,07,19.90
2012,07,06,15,08,19.90
2012,07,06,15,09,19.80
2012,07,06,15,10,19.80
2012,07,06,15,11,19.70
2012,07,06,15,12,19.70
2012,07,06,15,13,19.60
2012,07,06,15,14,19.60
2012,07,06,15,15,19.50
2012,07,06,15,16,19.50
2012,07,06,15,17,19.50
2012,07,06,15,18,19.40
2012,07,06,15,19,19.40
2012,07,06,15,20,19.30
2012,07,06,15,21,19.30
2012,07,06,15,22,19.30
2012,07,06,15,23,19.30
2012,07,06,15,24,19.40
2012,07,06,15,25,19.40
2012,07,06,15,26,19.40
2012,07,06,15,27,19.40
2012,07,06,15,28,19.40
2012,07,06,15,29,19.40
2012,07,06,15,30,19.40
2012,07,06,15,31,19.40
2012,07,06,15,32,19.30
2012,07,06,15,33,19.30
2012,07,06,15,34,19.30
2012,07,06,15,35,19.30
2012,07,06,15,36,19.20
2012,07,06,15,37,19.20
2012,07,06,15,38,19.20
2012,07,06,15,39,19.20
2012,07,06,15,40,19.20
2012,07,06,15,41,19.20
2012,07,06,15,42,19.10
2012,07,06,15,43,19.10
2012,07,06,15,44,19.10
2012,07,06,15,45,19.10
2012,07,06,15,46,19.20
2012,07,06,15,47,19.10
2012,07,06,15,48,19.10
2012,07,06,15,49,19.00
2012,07,06,15,50,19.00
2012,07,06,15,51,19.00
2012,07,06,15,52,19.00
2012,07,06,15,53,19.00
2012,07,06,15,54,19.00
2012,07,06,15,55,19.10
2012,07,06,15,56,19.10
2012,07,06,15,57,19.10
2012,07,06,15,58,19.10
2012,07,06,15,59,19.00
2012,07,06,16,00,19.00
2012,07,06,16,01,19.10
2012,07,06,16,02,19.10
2012,07,06,16,03,19.10
2012,07,06,16,04,19.10
2012,07,06,16,05,19.20
2012,07,06,16,06,19.30
2012,07,06,16,07,19.30
2012,07,06,16,08,19.40
2012,07,06,16,09,19.40
2012,07,06,16,10,19.40
2012,07,06,16,11,19.30
2012,07,06,16,12,19.30
2012,07,06,16,13,19.30
2012,07,06,16,14,19.20
2012,07,06,16,15,19.20
2012,07,06,16,16,19.10
2012,07,06,16,17,19.10
2012,07,06,16,18,19.00
2012,07,06,16,19,18.90
2012,07,06,16,20,19.00
2012,07,06,16,21,18.90
2012,07,06,16,22,19.00
2012,07,06,16,23,19.00
2012,07,06,16,24,19.00
2012,07,06,16,25,19.00
2012,07,06,16,26,19.10
2012,07,06,16,27,19.20
2012,07,06,16,28,19.30
2012,07,06,16,29,19.40
2012,07,06,16,30,19.40
2012,07,06,16,31,19.40
2012,07,06,16,32,19.50
2012,07,06,16,33,19.60
2012,07,06,16,34,19.60
2012,07,06,16,35,19.60
2012,07,06,16,36,19.50
2012,07,06,16,37,19.50
2012,07,06,16,38,19.50
2012,07,06,16,39,19.50
2012,07,06,16,40,19.60
2012,07,06,16,41,19.70
2012,07,06,16,42,19.80
2012,07,06,16,43,19.90
2012,07,06,16,44,20.00
2012,07,06,16,45,20.00
2012,07,06,16,46,19.90
2012,07,06,16,47,19.90
2012,07,06,16,48,19.80
2012,07,06,16,49,19.80
2012,07,06,16,50,19.80
2012,07,06,16,51,19.80
2012,07,06,16,52,19.80
2012,07,06,16,53,19.80
2012,07,06,16,54,19.80
2012,07,06,16,55,19.80
2012,07,06,16,56,19.90
2012,07,06,16,57,19.90
2012,07,06,16,58,19.80
2012,07,06,16,59,19.80
2012,07,06,17,00,19.80
2012,07,06,17,01,19.90
2012,07,06,17,02,20.00
2012,07,06,17,03,20.00
2012,07,06,17,04,20.00
2012,07,06,17,05,19.90
2012,07,06,17,06,19.90
2012,07,06,17,07,19.90
2012,07,06,17,08,19.90
2012,07,06,17,09,19.90
2012,07,06,17,10,19.90
2012,07,06,17,11,19.80
2012,07,06,17,12,19.80
2012,07,06,17,13,19.80
2012,07,06,17,14,19.70
2012,07,06,17,15,19.70
2012,07,06,17,16,19.70
2012,07,06,17,17,19.70
2012,07,06,17,18,19.70
2012,07,06,17,19,19.60